Showing default

COSMOS 1894, 18443

Orbit data source: Space-Track

COSMOS 1894, 18443 is a payload satellite owned by PVO (CIS) in GEO that was launched on Wed, 28 Oct 1987 UTC via a PROTON-K/DM-2 launch vehicle from the Tyuratam Missile And Space Complex (TTMTR). Payload-class satellites include a variety of spacecraft equipped with specific instruments for various scientific and technological missions. These include communications satellites like Starlink; space stations such as the ISS; scientific satellites like the Hubble; Earth observation satellites from companies like Planet Labs, Umbra, and HawkEye 360; GPS; miniature CubeSats for education and research; and military/defense satellites.

Not visible in the next 10 days
Identifier
18443, 1987-091A
Orbit
GEO
Country
Flag of CISCIS
Related business
Manufacturer
NPOL/KOMET
Mission
Defense Early Warn
Bus & Motor
OKO, Unknown motor
Mass
~1,250 kg wet, ~1,150 kg dry
Launch date (UTC)
1987-10-28 (38 years ago)
Launch vehicle
PROTON-K/DM-2
Launch site
Tyuratam Missile And Space Complex (TTMTR)
Object type
Payload
Rocket body
Debris
Shape & HBR
Cyl + 2 Pan, 2.5 m
Radar Cross Section
6.333 m², Large (>1 m²)

Expand to show TLE details & history
Last TLE update: 2 days ago

TLE from 2 days ago
0 COSMOS 1894
1 18443U 87091A   26071.10605693 -.00000169  00000-0  00000+0 0  9997
2 18443  10.8921 326.1677 0005427  10.9900 209.7396  1.00264252119843
Epoch: 2026-03-12T02:32Z
TLE epoch observation values (Epoch: 2026-03-12T02:32:43.318Z)
Latitude
-7.07903°
Longitude
-21.55313°
Altitude
35,809.432 km
Speed
3.073 km/s
True Right ascension
12h 25m 33s
True Declination
-7° 04' 19"
Sunlit
Object was in daylight at epoch
Visualization orbit readout
Latitude
Unknown
Longitude
Unknown
Altitude
Unknown
Speed
Unknown
Apparent Right ascension
Unknown
Apparent Declination
Unknown
Sunlit
N/A
Visualization observer readout
Local Sidereal Time
21:04:19
Azimuth
Unknown
Elevation
Unknown
Doppler factor
Unknown
Orbital elements
Apogee altitude
35,812.606 km
Perigee altitude
35,766.837 km
Semi-major axis
42,167.858 km
Eccentricity
0.00054
Inclination
10.8921°
RAAN
326.1677°
Arg. of periapsis
10.99°
True anomaly
209.70877°
Mean anomaly
209.7396°
Eccentric anomaly
209.72418°
Mean motion
0.25065 °/min
Orbital period
1,436.26 mins
BSTAR
0
Loading maneuver chart data...
Computing Atmospheric mass density...
Loading historical data...
Loading historical data...
Loading historical data...
Loading historical data...
Loading historical data...
Loading historical data...
Loading historical data...

Documentation

Showing up to 5 results
|